Hourly Data Report for August 04, 2020

SVARTEVAEG
NUNAVUT
Current Station Operator: ECCC - MSC

81°09'39.000" N
91°48'59.060" W
72.00 m
2403833
71872
NSG

Download Data

Hourly Data (August 2020)
Hourly Data Report for August 4, 2020
TIME Temp Definition
°C
Dew Point Definition
°C
Rel Hum Definition
%
Wind Dir Definition
10's deg

Wind Spd Definition
km/h
Visibility Definition
km
Stn Press Definition
kPa
Hmdx Definition


Wind Chill Definition


Weather Definition


00:00 -1.4 -3.7 84 33 20   100.14   -7 LegendNANA
01:00 -1.2 -3.6 84 33 21   100.18   -7 LegendNANA
02:00 -1.2 -2.9 88 34 23   100.18   -7 LegendNANA
03:00 -1.2 -2.4 92 34 23   100.19   -7 LegendNANA
04:00 -1.1 -2.1 93 34 23   100.21   -7 LegendNANA
05:00 -1.0 -1.9 94 33 24   100.22   -7 LegendNANA
06:00 -0.8 -1.6 94 33 20   100.24   -6 LegendNANA
07:00 -0.7 -1.6 94 34 19   100.24   -6 LegendNANA
08:00 -0.8 -1.6 94 35 19   100.24   -6 LegendNANA
09:00 -0.5 -1.8 91 33 22   100.26   -6 LegendNANA
10:00 -0.4 -1.4 93 33 21   100.28   -6 LegendNANA
11:00 -0.5 -1.4 93 34 23   100.31   -6 LegendNANA
12:00 -0.2 -1.4 92 34 19   100.34   -5 LegendNANA
13:00 -0.4 -1.9 90 35 23   100.35   -6 LegendNANA
14:00 0.0 -1.4 90 33 19   100.38   -5 LegendNANA
15:00 -0.4 -1.4 93 33 24   100.38   -6 LegendNANA
16:00 -0.1 -1.2 92 33 21   100.41   -6 LegendNANA
17:00 -0.3 -1.3 93 34 26   100.43   -6 LegendNANA
18:00 0.2 -1.6 87 34 20   100.42     LegendNANA
19:00 0.0 -1.6 89 34 21   100.44   -5 LegendNANA
20:00 0.2 -1.8 87 33 22   100.42     LegendNANA
21:00 -0.5 -1.2 95 33 24   100.41   -6 LegendNANA
22:00 -0.4 -1.5 92 34 23   100.44   -6 LegendNANA
23:00 -0.6 -1.6 93 33 24   100.41   -7 LegendNANA

Notes on Data Quality.

Legend

  • E = Estimated
  • M = Missing
  • NA = Not Available*
  • [empty] = Indicates an unobserved value
Date modified: